FW8513 Weather Reports


time (UTC)temp
C
wind
direction
speed
KPH
gust
KPH
rain 1hr
cm
rain 24hr
cm
rain mn
cm
humidity
%
barometer
mb
20260503020036 13 291 9.7 22.5 0.00 0.00 0.00 60 1016.5
20260503014557 15 313 30.6 51.5 0.00 0.00 0.00 51 1016.5
20260503013038 16 117 3.2 6.4 0.00 0.00 0.00 41 1015.7
20260503011547 17 0 1.6 4.8 0.00 0.00 0.00 39 1015.8
20260503010035 17 118 1.6 4.8 0.00 0.00 0.00 38 1015.7
20260503004543 17 118 1.6 4.8 0.00 0.00 0.00 41 1015.8
20260503003050 17 119 0.0 4.8 0.00 0.00 0.00 41 1016.0
20260503001538 17 121 0.0 4.8 0.00 0.00 0.00 40 1016.1
20260503000038 16 0 0.0 9.7 0.00 0.00 0.00 44 1016.1
20260502234543 16 121 0.0 19.3 0.00 0.00 0.00 46 1016.4
20260502233042 17 350 3.2 19.3 0.00 0.00 0.00 43 1017.1
20260502231542 17 21 3.2 6.4 0.00 0.00 0.00 37 1016.7
20260502230042 17 349 3.2 9.7 0.00 0.00 0.00 38 1016.7
20260502224538 17 348 4.8 12.9 0.00 0.00 0.00 38 1016.7
20260502223037 18 246 3.2 14.5 0.00 0.00 0.00 37 1017.0
20260502221537 18 234 4.8 14.5 0.00 0.00 0.00 36 1017.2
20260502220043 18 236 3.2 12.9 0.00 0.00 0.00 36 1017.4
20260502214541 18 113 3.2 12.9 0.00 0.00 0.00 37 1017.6
20260502213041 18 134 4.8 12.9 0.00 0.00 0.00 37 1017.9
20260502211547 17 329 3.2 14.5 0.00 0.00 0.00 39 1018.2
20260502210045 17 340 8.0 19.3 0.00 0.00 0.00 39 1018.5
20260502204537 17 192 3.2 12.9 0.00 0.00 0.00 39 1018.6
20260502203046 17 349 9.7 17.7 0.00 0.00 0.00 40 1018.9
20260502201544 17 311 3.2 16.1 0.00 0.00 0.00 42 1019.0
20260502200042 17 15 1.6 14.5 0.00 0.00 0.00 41 1019.2
20260502194541 17 355 4.8 17.7 0.00 0.00 0.00 41 1019.2
20260502193036 17 332 6.4 16.1 0.00 0.00 0.00 39 1019.5
20260502191545 17 81 4.8 16.1 0.00 0.00 0.00 42 1019.9
20260502190043 16 43 6.4 19.3 0.00 0.00 0.00 42 1019.8
20260502184543 16 35 4.8 19.3 0.00 0.00 0.00 43 1019.9
20260502183039 15 355 11.3 16.1 0.00 0.00 0.00 46 1020.0
20260502181555 15 29 6.4 19.3 0.00 0.00 0.00 45 1020.0
20260502163035 14 355 8.0 16.1 0.00 0.00 0.00 47 1020.4
20260502161534 14 336 8.0 17.7 0.00 0.00 0.00 47 1020.5
20260502151538 12 9 12.9 24.1 0.00 0.00 0.00 53 1020.4
20260502123035 6 0 3.2 9.7 0.00 0.00 0.00 67 1019.8
20260502121538 6 23 6.4 12.9 0.00 0.00 0.00 67 1019.6
20260502114536 6 28 8.0 14.5 0.00 0.00 0.00 66 1019.3
20260502113036 7 22 9.7 17.7 0.00 0.00 0.00 65 1019.4
20260502111535 7 5 12.9 19.3 0.00 0.00 0.00 64 1019.0
20260502110044 7 5 14.5 20.9 0.00 0.00 0.00 61 1018.8
20260502104542 8 18 16.1 27.4 0.00 0.00 0.00 58 1018.2
20260502103037 9 338 20.9 30.6 0.00 0.00 0.00 56 1017.9
20260502101541 8 360 20.9 29.0 0.00 0.00 0.00 58 1017.3
20260502070041 15 318 19.3 27.4 0.00 0.00 0.00 31 1015.8
20260502064553 15 319 19.3 27.4 0.00 0.00 0.00 34 1015.8
20260502063039 13 315 8.0 16.1 0.00 0.00 0.00 36 1015.8
20260502061537 12 0 1.6 12.9 0.00 0.00 0.00 37 1015.8
20260502060038 13 0 0.0 3.2 0.00 0.00 0.00 35 1015.6
20260502054538 13 313 4.8 12.9 0.00 0.00 0.00 34 1015.6
20260502053042 13 318 1.6 6.4 0.00 0.00 0.00 35 1015.7
20260502051540 13 316 6.4 14.5 0.00 0.00 0.00 35 1015.7
20260502050036 14 321 9.7 22.5 0.00 0.00 0.00 34 1015.6
20260502044539 14 311 11.3 19.3 0.00 0.00 0.00 34 1015.5
20260502043047 14 307 11.3 17.7 0.00 0.00 0.00 33 1015.5
20260502041543 15 297 9.7 16.1 0.00 0.00 0.00 32 1015.4
20260502040052 15 297 9.7 17.7 0.00 0.00 0.00 31 1015.5
20260502034537 15 299 11.3 17.7 0.00 0.00 0.00 31 1015.3
20260502033036 15 304 8.0 14.5 0.00 0.00 0.00 30 1015.4
20260502031544 16 304 11.3 16.1 0.00 0.00 0.00 29 1015.2
20260502030041 16 300 11.3 17.7 0.00 0.00 0.00 28 1015.1
20260502024541 16 296 8.0 12.9 0.00 0.00 0.00 26 1014.8
20260502023039 17 310 4.8 12.9 0.00 0.00 0.00 25 1014.9
20260502021538 18 298 9.7 14.5 0.00 0.00 0.00 24 1014.7